Location: Acequia del Cap
(41.7000°N, 0.6167°E)
Time: 15:46:29
(UTC+00:00)

NOSS 3-1 (C) - Pass Details

Date: 07 August 2020
Orbit: 743 x 1466 km, 63.4° (Epoch: 22 September)

Event Time Altitude Azimuth Distance (km) Brightness Sun altitude
Exits shadow 02:17:32 40° 153° (SSE) 1,181 3.7 -24.2°
Maximum altitude 02:18:44 47° 117° (ESE) 1,090 3.8 -24.1°
Drops below altitude 10° 02:24:28 10° 45° (NE) 2,638 6.9 -23.5°
Sets 02:27:17 0° 40° (NE) 3,698 8.0 -23.1°
